Regional Weather Roundup
Issued by NWS

Home | Current Version | Previous Version | Graphics & Text | Print | Product List | Glossary On
Versions: 1 2 3 4 5 6 7 8 9 10 11 12 13 14 15 16 17 18 19 20 21 22 23 24 25 26 27 28 29 30 31 32 33 34 35 36 37 38 39 40 41 42 43 44 45 46 47 48 49 50
000
ASUS43 KDTX 190710
RWRMI
MICHIGAN HOURLY REGIONAL WEATHER ROUNDUP
NATIONAL WEATHER SERVICE DETROIT/PONTIAC MI
200 AM EST FRI JAN 19 2018

NOTE: "FAIR" INDICATES FEW OR NO CLOUDS BELOW 12,000 FEET WITH NO
SIGNIFICANT WEATHER AND/OR OBSTRUCTION TO VISIBILITY.

MIZ047>049-052>055-059>063-066>070-074>076-081>083-190800-
SOUTHEAST LOWER MICHIGAN

CITY           SKY/WX    TMP DP  RH WIND       PRES   REMARKS
ADRIAN         FAIR      22  14  71 SW9       29.99F WCI  12
ALMA           FAIR      28  25  87 SW8       29.86F WCI  20
ANN ARBOR      FAIR      21  13  71 S9        29.95F WCI  11
BAD AXE        FAIR      25  18  76 SW9       29.87R WCI  15
CARO           FAIR      25  18  76 SW9       29.87S WCI  15
DETROIT CITY   FAIR      24  15  68 SW12      29.94F WCI  13
DETROIT        FAIR      24  15  68 SW14      29.96F WCI  12
FLINT          FAIR      24  16  71 SW9       29.90F WCI  14
GROSSE ILE     FAIR      25  15  67 SW10      29.96F WCI  14
HILLSDALE      FAIR      27  14  59 SW13      29.94F WCI  16
HOWELL         FAIR      25  18  74 SW9       29.90F WCI  15

CITY           SKY/WX    TMP DP  RH WIND       PRES   REMARKS
JACKSON        FAIR      24  15  68 SW17      29.93F WCI  11
LAMBERTVILLE   FAIR      25  14  63 SW13G22   29.99F WCI  14
LANSING        FAIR      25  18  74 SW14      29.90F WCI  13
LAPEER         FAIR      26  18  71 W10       29.90S WCI  16
MASON          FAIR      26  15  64 SW9       29.91F WCI  17
MONROE         FAIR      24  13  64 SW13      29.98F WCI  12
MT. CLEMENS    FAIR     N/A N/A N/A SW9         N/A
PONTIAC        FAIR      25  17  72 W12       29.90F WCI  14
PORT HOPE        N/A     27  19  72 SW9       29.82F WCI  18
PORT HURON     FAIR      19  12  73 S5        29.92F WCI  13
TRI CITIES     FAIR      25  20  81 SW14      29.87F WCI  13
MIDLAND        FAIR      24  21  85 S3        29.85F
TROY           FAIR      24  16  70 SW9       29.94F WCI  14
SAGINAW HB     FAIR      27  19  74 SW12      29.87F WCI  16
$$
MIZ043>046-050>051-056>058-064>065-071>073-077>080-190800-
SOUTHWEST LOWER MICHIGAN

CITY           SKY/WX    TMP DP  RH WIND       PRES   REMARKS
BATTLE CREEK   FAIR      26  17  68 SW16      29.93F WCI  14
BENTON HARBOR  FAIR      28  17  63 S12       29.95F WCI  18
BIG RAPIDS     FAIR      29  22  76 SW10      29.82F WCI  19
COLDWATER      FAIR      24  15  70 SW14G20   29.97F WCI  11
FREMONT        FAIR      29  20  68 SW8       29.85F WCI  21
HOLLAND        FAIR      32  25  75 SW17      29.91F WCI  21
GRAND RAPIDS   FAIR      30  23  75 SW18      29.88F WCI  18
IONIA          FAIR      27  20  76 SW16      29.87F WCI  15
KALAMAZOO      FAIR      26  16  65 SW12      29.94F WCI  16
LUDINGTON      FAIR      31  26  80 SW12      29.84R WCI  22
MARSHALL       FAIR      24  15  68 SW13      29.94S WCI  13
MOUNT PLEASANT FAIR      31  23  72 SW9       29.83F WCI  23
MUSKEGON       FAIR      34  24  67 SW14G23   29.88F WCI  25
SOUTH HAVEN    FAIR      31  22  68 SW13G22   29.94F WCI  21
$$
MIZ016>042-190800-
NORTHERN LOWER MICHIGAN

CITY           SKY/WX    TMP DP  RH WIND       PRES   REMARKS
ALPENA         CLOUDY    31  25  78 SW6       29.80R WCI  25
BEAVER ISLAND  CLOUDY    34  30  86 SW7       29.76R WCI  28
BELLAIRE       FAIR      29  26  90 S3        29.81R
CADILLAC       FAIR      23  22  94 SW9       29.77F WCI  13
CHARLEVOIX     FAIR      33  28  83 SW8       29.81R WCI  25
FRANKFORT      FAIR      34  26  73 SW12G18   29.81R WCI  26
GAYLORD        CLOUDY    28  25  88 W12       29.77R WCI  18
GRAYLING       FAIR      26  21  83 CALM      29.79S
HARBOR SPRINGS CLOUDY    32  29  90 SW6       29.77R WCI  26
HOUGHTON LAKE  FAIR      25  21  85 SW8       29.79F WCI  16
MANISTEE       FAIR      29  24  82 SW6       29.83R WCI  23
OSCODA         CLOUDY    29  22  75 SW14      29.81F WCI  18
PELLSTON       CLOUDY    34  29  82 SW7       29.76R WCI  28
ROGERS CITY    CLOUDY    32  26  79 SW6       29.78R WCI  26
TRAVERSE CITY  FAIR      28  23  81 CALM      29.81R
$$
MIZ007>008-015-190800-
EASTERN UPPER MICHIGAN

CITY           SKY/WX    TMP DP  RH WIND       PRES   REMARKS
KINROSS        CLOUDY    30  25  81 W5        29.73F WCI  25
MACKINAC ISLAN CLOUDY    32  28  86 SW5       29.75S WCI  27
NEWBERRY       CLOUDY    29  26  88 SW6       29.73S WCI  23
S. S. MARIE    CLOUDY    32  25  75 SW5       29.73S WCI  27
MUNISING         N/A     31  26  82 SW6       29.71F WCI  25
$$
MIZ004>006-011>014-085-190800-
CENTRAL UPPER MICHIGAN

CITY           SKY/WX    TMP DP  RH WIND       PRES   REMARKS
MANISTIQUE     CLOUDY    30  26  85 CALM      29.74F
ESCANABA       FAIR      21  19  92 W3        29.75F
MENOMINEE      FAIR      25  20  81 SW6       29.78F WCI  18
SAWYER-GWINN   CLOUDY    29  24  80 S6        29.69F WCI  23
$$
MIZ001>003-009>011-084-190800-
WESTERN UPPER MICHIGAN

CITY           SKY/WX    TMP DP  RH WIND       PRES   REMARKS
IRON MOUNTAIN  FAIR      20  16  84 CALM      29.69F
HOUGHTON       MOCLDY    30  23  75 SW5       29.64F WCI  25
COPPER HARBOR    N/A     33  27  78 W5        29.65F WCI  29
IRONWOOD       FAIR      27  21  78 SW10      29.67F WCI  17
$$

ABBREVIATIONS USED IN REMARKS
   TC - TEMPERATURE IN CELSIUS
  WCI - WIND CHILL INDEX
   HX - HEAT INDEX
  VSB - VISIBILITY





USA.gov is the U.S. government's official web portal to all federal, state and local government web resources and services.